User: anonymous   Login
Location: Lake Almanor
(40.2485°N, 121.1442°W)
Time: 05:57:05
(UTC-07:00)
Language:

STARLINK-1102 - Orbit

View from above orbital plane
View from above orbital plane
View from above satellite
View from above satellite

Ground track
Ground track

The orbit data is extracted from the following two-line orbital elements,

1 44920U 20001G   20095.25001157  .00000785  00000-0  73011-4 0  9995
2 44920  53.0008 347.6504 0002076  60.1722 106.4630 15.05597050 13482
Epoch (UTC): 04 April 2020 06:00:01
Eccentricity: 0.0002076
inclination: 53.0008°
perigee height: 548 km
apogee height: 551 km
right ascension of ascending node: 347.6504°
argument of perigee: 60.1722°
revolutions per day: 15.05597050
mean anomaly at epoch: 106.4630°
orbit number at epoch: 1348

The dashed part of the orbit path shows where the satellite is in the earth's shadow,  

DLR